American Falls Reservoir Weather Center

Moon Phase Calendar



American Falls Reservoir Water Level
Online Cameras

 


      

Current Conditions in Aberdeen
10/23/2021 2:45:46 PM

49°F
Feels Like 44
Clouds
Humidity
53%
Pressure
29.83"
Wind
15 mph (W)
Dew Point
33°F
UV Index
2/10 (Low)
Visibility
6 mi

Hourly Forecast

Date & Time Sat, Oct 23
2:00 PM
Sat, Oct 23
3:00 PM
Sat, Oct 23
4:00 PM
Sat, Oct 23
5:00 PM
Sat, Oct 23
6:00 PM
Sat, Oct 23
7:00 PM
Sat, Oct 23
8:00 PM
Sat, Oct 23
9:00 PM
Sat, Oct 23
10:00 PM
Sat, Oct 23
11:00 PM
Sun, Oct 24
12:00 AM
Sun, Oct 24
1:00 AM
Sun, Oct 24
2:00 AM
Sun, Oct 24
3:00 AM
Sun, Oct 24
4:00 AM
Sun, Oct 24
5:00 AM
Sun, Oct 24
6:00 AM
Sun, Oct 24
7:00 AM
Sun, Oct 24
8:00 AM
Sun, Oct 24
9:00 AM
Sun, Oct 24
10:00 AM
Sun, Oct 24
11:00 AM
Sun, Oct 24
12:00 PM
Sun, Oct 24
1:00 PM
Sun, Oct 24
2:00 PM
Sun, Oct 24
3:00 PM
Sun, Oct 24
4:00 PM
Sun, Oct 24
5:00 PM
Sun, Oct 24
6:00 PM
Sun, Oct 24
7:00 PM
Sun, Oct 24
8:00 PM
Sun, Oct 24
9:00 PM
Sun, Oct 24
10:00 PM
Sun, Oct 24
11:00 PM
Mon, Oct 25
12:00 AM
Mon, Oct 25
1:00 AM
Mon, Oct 25
2:00 AM
Mon, Oct 25
3:00 AM
Mon, Oct 25
4:00 AM
Mon, Oct 25
5:00 AM
Mon, Oct 25
6:00 AM
Mon, Oct 25
7:00 AM
Mon, Oct 25
8:00 AM
Mon, Oct 25
9:00 AM
Mon, Oct 25
10:00 AM
Mon, Oct 25
11:00 AM
Mon, Oct 25
12:00 PM
Mon, Oct 25
1:00 PM
Condition
Clouds

Clouds

Clouds

Clouds

Clouds

Clouds

Clouds

Clouds

Clouds

Clouds

Clouds

Clouds

Clouds

Clouds

Clouds

Rain

Rain

Clouds

Clouds

Clouds

Clouds

Clouds

Clouds

Clouds

Clouds

Clouds

Rain

Rain

Rain

Rain

Rain

Rain

Rain

Rain

Clouds

Clouds

Clouds

Clouds

Clouds

Clouds

Clouds

Clouds

Clouds

Rain

Rain

Rain

Rain

Rain
Temperature 50°F49°F50°F50°F50°F49°F45°F43°F42°F41°F40°F41°F42°F43°F42°F43°F43°F43°F43°F44°F45°F47°F50°F52°F53°F54°F51°F50°F48°F48°F48°F49°F49°F49°F50°F51°F51°F51°F53°F53°F54°F55°F55°F53°F50°F49°F48°F47°F
Feels Like 44°F44°F44°F47°F47°F44°F41°F38°F36°F36°F36°F36°F38°F39°F38°F39°F39°F39°F38°F39°F40°F42°F48°F50°F50°F51°F49°F45°F43°F43°F45°F46°F47°F47°F49°F49°F49°F50°F51°F51°F52°F53°F52°F51°F49°F45°F45°F44°F
Cloudiness 80%75%80%84%89%95%89%73%71%77%78%100%100%100%100%100%100%100%100%99%99%99%99%100%100%100%100%100%100%100%100%100%100%100%100%100%100%100%100%100%100%100%100%100%100%100%100%100%
Visibility 6 mi6 mi6 mi6 mi6 mi6 mi6 mi6 mi6 mi6 mi6 mi6 mi6 mi6 mi6 mi6 mi6 mi6 mi6 mi6 mi6 mi6 mi6 mi6 mi6 mi6 mi6 mi6 mi6 mi6 mi6 mi6 mi6 mi6 mi6 mi6 mi6 mi6 mi6 mi6 mi6 mi6 mi6 mi6 mi6 mi4 mi4 mi3 mi
Precipitation 6%2%2%9%0%8%8%8%4%4%0%0%2%3%7%39%23%23%19%11%9%2%0%0%0%8%33%61%98%100%100%100%100%100%80%13%19%23%19%19%22%32%32%47%73%91%96%100%
Humidity 51%53%50%47%47%48%60%72%82%83%84%82%78%78%82%83%84%84%83%76%70%64%55%49%49%50%62%66%78%82%83%84%86%84%79%74%71%69%60%59%58%57%58%64%77%86%92%90%
Dew Point 32°F33°F32°F31°F31°F30°F31°F34°F36°F35°F35°F35°F35°F36°F36°F37°F38°F38°F37°F36°F35°F35°F34°F33°F33°F35°F38°F38°F40°F42°F42°F43°F44°F44°F43°F42°F41°F41°F39°F39°F39°F39°F39°F41°F43°F44°F45°F44°F
Pressure 29.8"29.83"29.8"29.77"29.77"29.77"29.77"29.8"29.83"29.83"29.83"29.8"29.8"29.83"29.83"29.85"29.85"29.85"29.85"29.85"29.85"29.83"29.77"29.77"29.71"29.74"29.68"29.71"29.71"29.71"29.71"29.68"29.68"29.65"29.62"29.59"29.56"29.56"29.5"29.47"29.47"29.47"29.47"29.5"29.53"29.53"29.53"29.53"
Wind Speed 14 mph14.8 mph15 mph14.2 mph12.2 mph11.7 mph8.6 mph9.2 mph8.4 mph8 mph7.1 mph7.2 mph6.5 mph6.3 mph7.7 mph7.5 mph6 mph6.5 mph8.1 mph8.2 mph9.5 mph10.9 mph12.1 mph11.6 mph14.6 mph15.9 mph15.2 mph12.2 mph9.9 mph9.2 mph6.4 mph5.7 mph3.8 mph5.3 mph3.8 mph3 mph3.8 mph4.5 mph9.6 mph8.8 mph12.1 mph15.3 mph13.5 mph12.2 mph9.4 mph9.1 mph7.2 mph7.7 mph
Wind
Direction
250°
WSW
250°
WSW
247°
WSW
247°
WSW
245°
WSW
235°
SW
204°
SSW
177°
S
168°
SSE
175°
S
165°
SSE
167°
SSE
171°
S
181°
S
198°
SSW
203°
SSW
193°
SSW
166°
SSE
160°
SSE
154°
SSE
142°
SE
148°
SSE
165°
SSE
167°
SSE
172°
S
190°
S
173°
S
176°
S
161°
SSE
161°
SSE
151°
SSE
141°
SE
103°
ESE
72°
ENE
64°
ENE
65°
ENE
101°
E
107°
ESE
161°
SSE
180°
S
173°
S
182°
S
196°
SSW
222°
SW
242°
WSW
250°
WSW
257°
WSW
277°
W

Daily Forecast

Date High Low Precip. Humidity
Today
Oct 23

Rain
50 °F
41 °F
48%
52%
Sunday
Oct 24

Rain
54 °F
40 °F
100%
49%
Monday
Oct 25

Rain
54 °F
43 °F
100%
92%
Tuesday
Oct 26

Rain
49 °F
38 °F
100%
60%
Wednesday
Oct 27

Clouds
52 °F
39 °F
0%
57%
Thursday
Oct 28

Clouds
60 °F
47 °F
21%
60%
Friday
Oct 29

Clouds
64 °F
43 °F
0%
50%
Saturday
Oct 30

Clouds
42 °F
30 °F
28%
51%
Sunday
Oct 31

Clear
43 °F
28 °F
0%
44%
Monday
Nov 1

Clouds
45 °F
27 °F
0%
39%
Tuesday
Nov 2

Clouds
51 °F
35 °F
0%
36%
Wednesday
Nov 3

Rain
54 °F
42 °F
32%
42%
Thursday
Nov 4

Clouds
49 °F
37 °F
27%
66%
Friday
Nov 5

Clouds
54 °F
38 °F
0%
47%
Saturday
Nov 6

Clear
62 °F
39 °F
0%
39%
Sunday
Nov 7

Rain
49 °F
34 °F
24%
49%

Temperature 8-14 Day Outlook



Precipitation 8-14 Day Outlook




Quick Links
American Falls Reservoir News
American Falls Reservoir Photos
American Falls Reservoir Videos




About Us
Contact Us
Site Map
Search Site
Advertise With Us
   
AmericanFalls.USLakes.info
THE AMERICAN FALLS RESERVOIR WEBSITE

Copyright 2021, Lakes Online
Privacy    |    Legal